Regional Weather Roundup
Issued by NWS

Home | Current Version | Previous Version | Graphics & Text | Print | Product List | Glossary On
Versions: 1 2 3 4 5 6 7 8 9 10 11 12 13 14 15 16 17 18 19 20 21 22 23 24 25 26 27 28 29 30 31 32 33 34 35 36 37 38 39 40 41 42 43 44 45 46 47 48 49 50
876
ASUS43 KIND 082109
RWRIN

WEATHER ROUNDUP FOR INDIANA
NATIONAL WEATHER SERVICE INDIANAPOLIS IN
400 PM EST THU DEC 08 2016

NOTE: "FAIR" INDICATES FEW OR NO CLOUDS BELOW 12,000 FEET WITH NO
SIGNIFICANT WEATHER AND/OR OBSTRUCTIONS TO VISIBILITY.

* - STATION DOES NOT REPORT WEATHER SUCH AS PRECIPITATION OR FOG.

+ - STATION NOT QUALITY CONTROLLED BY THE NATIONAL WEATHER SERVICE.
    USE DATA WITH CAUTION...ESPECIALLY DEWPOINT AND RELATIVE
    HUMIDITY OBSERVATIONS.

INZ001>003-010>013-019-020-082200-
NORTHWEST INDIANA

CITY           SKY/WX    TMP DP  RH WIND       PRES   REMARKS
KNOX *+        CLOUDY    19  -4  35 W20       30.33R WCI   4
LA PORTE +     LGT SNOW  19  13  75 W15G22    30.31R WCI   5
MICHIGAN CITY+ CLOUDY    23  18  80 W9G23     30.31R WCI  13
MONTICELLO +   CLOUDY    21  10  63 W18       30.35R WCI   6
RENSSELAER +   FLURRIES  21  18  86 W17       30.36R WCI   7
VALPARAISO     CLOUDY    20  12  71 W17       30.32R WCI   5

$$

LMZ046-743>745-082200-
SOUTHERN LAKE MICHIGAN

STATION/POSITION TIME  TEMP    WIND        PRES    WAVE
                       AIR SEA DIR/SP/G            HT
                 (UTC) (F)     (DEG/KT/KT) (MB)    (FT)

$$

INZ004-005-014>016-021>024-082200-
NORTH CENTRAL INDIANA

CITY           SKY/WX    TMP DP  RH WIND       PRES   REMARKS
ELKHART        LGT SNOW  21  16  79 W13       30.26R WCI   9
GOSHEN         FLURRIES  21  13  71 W16G25    30.27R WCI   7
LOGANSPORT +   CLOUDY    21  14  73 W17G28    30.34R WCI   7
PERU/GRISSOM   FLURRIES  21  13  71 W21       30.30R WCI   5
ROCHESTER +    FLURRIES  23  18  80 W14G23    30.32R WCI  11
SOUTH BEND     LGT SNOW  20  15  81 W13       30.28R WCI   7
WARSAW +       LGT SNOW  21  12  68 W16G23    30.29R WCI   7

$$

INZ006>009-017-018-025>027-082200-
NORTHEAST INDIANA

CITY           SKY/WX    TMP DP  RH WIND       PRES   REMARKS
ANGOLA *+      CLOUDY    19  16  86 W14       30.22R WCI   6
AUBURN +       FLURRIES  23  14  68 W12G20    30.27R WCI  12
FORT WAYNE     FLURRIES  21  13  71 W17G25    30.29R WCI   7
HUNTINGTON +   FLURRIES  20  13  72 W13G23    30.30R WCI   8
KENDALLVILLE + LGT SNOW  20  15  79 W16G23    30.25R WCI   6

$$

INZ028-029-035-036-043>045-051>053-082200-
WEST CENTRAL INDIANA

CITY           SKY/WX    TMP DP  RH WIND       PRES   REMARKS
CRAWFORDSVL +  CLOUDY    21  14  75 W17       30.37R WCI   6
GREENCASTLE +  CLOUDY    23  16  74 W13G24    30.38R WCI  11
LAFAYETTE      CLOUDY    21  13  71 W14       30.37R WCI   8
TERRE HAUTE    CLOUDY    24  13  62 W12G22    30.42R WCI  13

$$

INZ030>032-037>040-046>048-054>057-064-065-082200-
CENTRAL INDIANA

CITY           SKY/WX    TMP DP  RH WIND       PRES   REMARKS
ANDERSON       CLOUDY    23  14  68 W17G29    30.33R WCI   9
CP ATTERBURY + CLOUDY    27  16  63 W14       30.38R WCI  15
COLUMBUS       PTSUNNY   25  18  74 W15       30.38R WCI  12
FISHERS *+     CLOUDY    21  18  86 W20G25    30.35R WCI   6
FRANKFORT +    CLOUDY    25  17  71 W22       30.36R WCI  10
GREENWOOD *+   CLOUDY    24  17  73 W13       30.36R WCI  12
INDIANAPOLIS   FLURRIES  23  14  68 W17       30.36R WCI   9
-EAGLE CREEK   CLOUDY    24  14  65 W18G25    30.35R WCI  10
KOKOMO +       FLURRIES  21  15  78 W23       30.33R WCI   5
MARION +       FLURRIES  21  15  78 W22       30.32R WCI   5
MT COMFORT *+  CLOUDY    23  14  68 W17G23    30.34R WCI   9
SHELBYVILLE    CLOUDY    24  14  65 W20       30.35R WCI  10
ZIONSVILLE +   CLOUDY    22  14  72 W14G24    30.34R WCI   9

$$

INZ033-034-041-042-049-050-058-059-082200-
EAST CENTRAL INDIANA

CITY           SKY/WX    TMP DP  RH WIND       PRES   REMARKS
MUNCIE         CLOUDY    24  14  65 W16G26    30.30R WCI  11

$$

INZ060-061-067>069-081>083-085>088-082200-
SOUTHWEST INDIANA

CITY           SKY/WX    TMP DP  RH WIND       PRES   REMARKS
EVANSVILLE     MOSUNNY   31  15  52 W12G22    30.45R WCI  22
HUNTINGBURG *+ PTSUNNY   30  17  58 NW18      30.42R WCI  18
WASHINGTON +   CLOUDY    27  19  71 NW16      30.43R WCI  14

$$

INZ062-063-066-070>080-084-089>092-082200-
SOUTH CENTRAL AND SOUTHEAST INDIANA

CITY           SKY/WX    TMP DP  RH WIND       PRES   REMARKS
BLOOMINGTON    CLOUDY    24  13  62 W14G20    30.38R WCI  12
MADISON *+     PTSUNNY   32  16  51 W12G18    30.37R WCI  23
NORTH VERNON + PTSUNNY   30  23  74 W15       30.36R WCI  19
SEYMOUR +      PTSUNNY   28  14  54 W10G16    30.39R WCI  19

$$





USA.gov is the U.S. government's official web portal to all federal, state and local government web resources and services.